• In Russia
  • List of Countries
  • For 7 days
  • Water Temperature
  • Satellite Maps
  • Weather Map
  • Weather Widgets
  • user-avatar
    Login

    Hourly Weather Ganja

    Today, 4 December, Sunday

    Time Temperature Precipitation Wind Pressure Humidity
    00:00 +3°C° 0 mm 3 mps 730 mmHg 59%
    01:00 +3°C° 0 mm 3 mps 730 mmHg 60%
    02:00 +2°C° 0 mm 3 mps 730 mmHg 61%
    03:00 +2°C° 0 mm 3 mps 731 mmHg 62%
    04:00 +2°C° 0 mm 3 mps 731 mmHg 62%
    05:00 +2°C° 0 mm 3 mps 731 mmHg 63%
    06:00 +2°C° 0 mm 3 mps 731 mmHg 63%
    07:00 +2°C° 0 mm 3 mps 731 mmHg 60%
    08:00 +3°C° 0 mm 3 mps 732 mmHg 57%
    09:00 +4°C° 0 mm 3 mps 732 mmHg 54%
    10:00 +5°C° 0 mm 3 mps 731 mmHg 50%
    11:00 +7°C° 0 mm 3 mps 731 mmHg 46%
    12:00 +8°C° 0 mm 3 mps 731 mmHg 43%
    13:00 +8°C° 0 mm 3 mps 730 mmHg 45%
    14:00 +8°C° 0 mm 3 mps 730 mmHg 46%
    15:00 +8°C° 0 mm 3 mps 730 mmHg 48%
    16:00 +5°C° 0 mm 3 mps 730 mmHg 55%
    17:00 +4°C° 0 mm 3 mps 730 mmHg 62%
    18:00 +3°C° 0 mm 3 mps 731 mmHg 68%
    19:00 +3°C° 0 mm 3 mps 731 mmHg 69%
    20:00 +3°C° 0 mm 4 mps 731 mmHg 70%
    21:00 +1°C° 0 mm 4 mps 731 mmHg 70%
    22:00 +1°C° 0 mm 4 mps 731 mmHg 70%
    23:00 +1°C° 0 mm 4 mps 731 mmHg 70%

    Tomorrow, 5 December, Monday

    Time Temperature Precipitation Wind Pressure Humidity
    00:00 +1°C° 0 mm 4 mps 731 mmHg 70%
    01:00 +1°C° 0 mm 4 mps 731 mmHg 70%
    02:00 +1°C° 0 mm 4 mps 731 mmHg 70%
    03:00 +1°C° 0 mm 4 mps 731 mmHg 71%
    04:00 0°C° 0 mm 4 mps 731 mmHg 71%
    05:00 +1°C° 0 mm 3 mps 730 mmHg 71%
    06:00 +1°C° 0 mm 3 mps 730 mmHg 72%
    07:00 +2°C° 0 mm 3 mps 731 mmHg 67%
    08:00 +3°C° 0 mm 3 mps 731 mmHg 63%
    09:00 +4°C° 0 mm 3 mps 731 mmHg 58%
    10:00 +5°C° 0 mm 3 mps 730 mmHg 55%
    11:00 +7°C° 0 mm 3 mps 730 mmHg 51%
    12:00 +8°C° 0 mm 2 mps 729 mmHg 48%
    13:00 +7°C° 0 mm 2 mps 729 mmHg 49%
    14:00 +7°C° 0 mm 2 mps 729 mmHg 50%
    15:00 +7°C° 0 mm 2 mps 729 mmHg 51%
    16:00 +6°C° 0.1 mm 2 mps 729 mmHg 57%
    17:00 +5°C° 0.1 mm 2 mps 729 mmHg 63%
    18:00 +4°C° 0.1 mm 2 mps 729 mmHg 69%
    19:00 +4°C° 0.4 mm 2 mps 729 mmHg 72%
    20:00 +3°C° 0.4 mm 2 mps 729 mmHg 75%
    21:00 +3°C° 0.4 mm 2 mps 729 mmHg 79%
    22:00 +2°C° 0.7 mm 3 mps 730 mmHg 82%
    23:00 +1°C° 0.7 mm 3 mps 730 mmHg 85%

    Day after tomorrow, 6 December, Tuesday

    Time Temperature Precipitation Wind Pressure Humidity
    00:00 +1°C° 0.7 mm 3 mps 730 mmHg 87%
    01:00 0°C° 0.7 mm 4 mps 730 mmHg 86%
    02:00 0°C° 0.7 mm 4 mps 731 mmHg 85%
    03:00 -1°C° 0.7 mm 5 mps 731 mmHg 84%
    04:00 -1°C° 0.3 mm 5 mps 731 mmHg 80%
    05:00 -1°C° 0.3 mm 4 mps 732 mmHg 76%
    06:00 -1°C° 0.3 mm 4 mps 732 mmHg 72%
    07:00 -1°C° 0.1 mm 4 mps 733 mmHg 70%
    08:00 -1°C° 0.1 mm 4 mps 733 mmHg 68%
    09:00 -1°C° 0.1 mm 4 mps 733 mmHg 66%
    10:00 0°C° 0 mm 4 mps 733 mmHg 64%
    11:00 0°C° 0 mm 4 mps 733 mmHg 62%
    12:00 +1°C° 0 mm 4 mps 733 mmHg 60%
    13:00 +1°C° 0 mm 4 mps 732 mmHg 62%
    14:00 +2°C° 0 mm 3 mps 732 mmHg 64%
    15:00 +1°C° 0 mm 3 mps 732 mmHg 65%
    16:00 0°C° 0 mm 3 mps 732 mmHg 69%
    17:00 -1°C° 0 mm 2 mps 732 mmHg 72%
    18:00 -3°C° 0 mm 2 mps 732 mmHg 76%
    19:00 -3°C° 0 mm 2 mps 732 mmHg 76%
    20:00 -4°C° 0 mm 2 mps 732 mmHg 76%
    21:00 -4°C° 0 mm 2 mps 733 mmHg 76%
    22:00 -4°C° 0 mm 2 mps 732 mmHg 75%
    23:00 -4°C° 0 mm 2 mps 732 mmHg 73%

    7 December, Wednesday

    Time Temperature Precipitation Wind Pressure Humidity
    00:00 -3°C° 0 mm 2 mps 732 mmHg 71%
    01:00 -3°C° 0 mm 2 mps 732 mmHg 70%
    02:00 -4°C° 0 mm 3 mps 731 mmHg 69%
    03:00 -4°C° 0 mm 3 mps 731 mmHg 68%
    04:00 -4°C° 0 mm 3 mps 731 mmHg 67%
    05:00 -4°C° 0 mm 3 mps 731 mmHg 67%
    06:00 -4°C° 0 mm 3 mps 731 mmHg 67%
    07:00 -2°C° 0 mm 3 mps 731 mmHg 65%
    08:00 -1°C° 0 mm 3 mps 730 mmHg 64%
    09:00 -1°C° 0 mm 4 mps 730 mmHg 63%
    10:00 +1°C° 0 mm 4 mps 730 mmHg 60%
    11:00 +3°C° 0 mm 4 mps 729 mmHg 58%
    12:00 +4°C° 0 mm 4 mps 728 mmHg 55%
    13:00 +4°C° 0 mm 4 mps 728 mmHg 57%
    14:00 +4°C° 0 mm 4 mps 728 mmHg 58%
    15:00 +4°C° 0 mm 3 mps 727 mmHg 60%
    16:00 +1°C° 0 mm 4 mps 728 mmHg 62%
    17:00 0°C° 0 mm 4 mps 728 mmHg 64%
    18:00 -1°C° 0 mm 4 mps 728 mmHg 66%
    19:00 -2°C° 0 mm 4 mps 729 mmHg 64%
    20:00 -2°C° 0 mm 4 mps 729 mmHg 63%
    21:00 -2°C° 0 mm 4 mps 729 mmHg 62%
    22:00 -2°C° 0 mm 4 mps 729 mmHg 62%
    23:00 -2°C° 0 mm 4 mps 729 mmHg 62%

    8 December, Thursday

    Time Temperature Precipitation Wind Pressure Humidity
    00:00 -2°C° 0 mm 4 mps 728 mmHg 62%
    01:00 -2°C° 0 mm 4 mps 728 mmHg 62%
    02:00 -3°C° 0 mm 4 mps 729 mmHg 63%
    03:00 -3°C° 0 mm 4 mps 729 mmHg 63%
    04:00 -3°C° 0 mm 4 mps 729 mmHg 64%
    05:00 -3°C° 0 mm 4 mps 730 mmHg 64%
    06:00 -3°C° 0 mm 4 mps 730 mmHg 65%
    07:00 -2°C° 0 mm 4 mps 731 mmHg 64%
    08:00 -1°C° 0 mm 4 mps 732 mmHg 63%
    09:00 -1°C° 0 mm 4 mps 732 mmHg 62%
    10:00 0°C° 0 mm 5 mps 732 mmHg 61%
    11:00 0°C° 0 mm 5 mps 732 mmHg 60%
    12:00 0°C° 0 mm 5 mps 732 mmHg 59%
    13:00 0°C° 0 mm 5 mps 732 mmHg 60%
    14:00 0°C° 0 mm 5 mps 732 mmHg 60%
    15:00 0°C° 0 mm 5 mps 732 mmHg 60%
    16:00 -2°C° 0 mm 4 mps 732 mmHg 64%
    17:00 -4°C° 0 mm 3 mps 733 mmHg 67%
    18:00 -5°C° 0 mm 2 mps 733 mmHg 70%
    19:00 -5°C° 0 mm 2 mps 733 mmHg 71%
    20:00 -5°C° 0 mm 2 mps 733 mmHg 71%
    21:00 -6°C° 0 mm 2 mps 733 mmHg 72%
    22:00 -6°C° 0 mm 2 mps 733 mmHg 72%
    23:00 -6°C° 0 mm 2 mps 733 mmHg 72%

    9 December, Friday

    Time Temperature Precipitation Wind Pressure Humidity
    00:00 -4°C° 0 mm 1 mps 733 mmHg 72%
    01:00 -6°C° 0 mm 2 mps 733 mmHg 72%
    02:00 -6°C° 0 mm 2 mps 733 mmHg 72%
    03:00 -6°C° 0 mm 2 mps 733 mmHg 72%
    04:00 -6°C° 0 mm 2 mps 733 mmHg 72%
    05:00 -4°C° 0 mm 1 mps 733 mmHg 72%
    06:00 -4°C° 0 mm 1 mps 733 mmHg 72%
    07:00 -3°C° 0 mm 1 mps 733 mmHg 68%
    08:00 -2°C° 0 mm 1 mps 734 mmHg 65%
    09:00 0°C° 0 mm 1 mps 734 mmHg 61%
    10:00 +1°C° 0 mm 1 mps 733 mmHg 58%
    11:00 +2°C° 0 mm 1 mps 733 mmHg 55%
    12:00 +2°C° 0 mm 2 mps 732 mmHg 52%
    13:00 +2°C° 0 mm 2 mps 732 mmHg 54%
    14:00 +1°C° 0 mm 2 mps 732 mmHg 56%
    15:00 +2°C° 0 mm 1 mps 731 mmHg 58%
    16:00 0°C° 0 mm 1 mps 732 mmHg 62%
    17:00 -2°C° 0 mm 1 mps 732 mmHg 67%
    18:00 -4°C° 0 mm 1 mps 732 mmHg 72%
    19:00 -3°C° 0 mm 1 mps 732 mmHg 70%
    20:00 -3°C° 0 mm 1 mps 732 mmHg 69%
    21:00 -3°C° 0 mm 1 mps 732 mmHg 68%
    22:00 -3°C° 0 mm 1 mps 731 mmHg 68%
    23:00 -3°C° 0 mm 1 mps 731 mmHg 68%
    Show more